Location: Muenchen
(48.1800°N, 11.5800°E)
Time: 16:01:34
(UTC+01:00)

Iridium 36 - Visible Passes

Search period start: 17 January 2017 00:00
Search period end: 27 January 2017 00:00
Orbit: 771 x 774 km, 86.4° (Epoch: 16 January)

Date Brightness Start Highest point End Pass type
(mag) Time Alt. Az. Time Alt. Az. Time Alt. Az.
17 Jan 8.5 03:41:26 10° NE 03:43:02 11° ENE 03:44:38 10° E visible
17 Jan 5.6 05:19:24 10° N 05:24:38 75° E 05:29:49 10° S visible
17 Jan 6.9 07:01:32 10° NW 07:04:36 16° WNW 07:07:40 10° WSW visible
17 Jan 6.1 18:19:18 10° SSW 18:24:25 61° W 18:29:35 10° N visible
18 Jan 6.6 04:44:42 10° N 04:49:39 42° E 04:54:34 10° SSE visible
18 Jan 6.3 06:25:44 10° NNW 06:30:05 28° W 06:34:25 10° SW visible
18 Jan 5.5 17:44:21 10° S 17:49:31 77° E 17:54:44 10° N visible
18 Jan 8.3 19:27:39 10° WSW 19:30:49 16° WNW 19:34:01 10° NNW visible
19 Jan 7.5 04:10:17 10° NNE 04:14:32 25° ENE 04:18:46 10° SE visible
19 Jan 5.6 05:50:26 10° NNW 05:55:25 48° W 06:00:23 10° SSW visible
19 Jan 7.6 18:51:11 10° SW 18:55:34 27° WNW 18:59:59 10° NNW visible
20 Jan 8.2 03:36:25 10° NE 03:39:15 15° ENE 03:42:05 10° E visible
20 Jan 5.4 05:15:24 10° N 05:20:38 85° W 05:25:50 10° S visible
20 Jan 7.1 06:58:19 10° NW 07:00:24 12° WNW 07:02:29 10° W visible
20 Jan 6.6 18:15:29 10° SSW 18:20:28 47° W 18:25:30 10° N visible
21 Jan 6.1 04:45:31 54° ENE 04:45:43 54° E 04:50:48 10° SSE visible
21 Jan 6.6 06:26:03 22° W 06:26:03 22° W 06:29:50 10° SW visible
21 Jan 5.6 17:40:19 10° S 17:45:31 83° W 17:50:46 10° N visible
21 Jan 8.5 19:24:48 10° W 19:27:02 13° WNW 19:29:15 10° NW visible
22 Jan 7.5 04:12:44 23° ESE 04:12:44 23° ESE 04:15:15 10° SE visible
22 Jan 6.5 05:53:15 28° SW 05:53:15 28° SW 05:56:05 10° SSW visible
22 Jan 8.0 18:47:45 10° WSW 18:51:43 22° WNW 18:55:42 10° NNW visible
23 Jan8.503:39:41ESE03:39:41ESE03:29:05Nvisible
23 Jan 7.2 05:20:10 20° SSW 05:20:10 20° SSW 05:21:45 10° S visible
23 Jan 7.1 18:11:46 10° SW 18:16:33 37° WNW 18:21:22 10° N visible
24 Jan 8.0 04:46:57 10° S 04:46:57 10° S 04:34:26 - N visible
24 Jan 6.0 17:36:23 10° SSW 17:41:32 65° W 17:46:44 10° N visible
25 Jan8.704:13:35SSE04:13:35SSE03:59:30Nvisible
25 Jan 8.2 18:44:30 10° WSW 18:47:53 17° WNW 18:51:17 10° NNW visible
26 Jan 7.6 18:08:10 10° SW 18:12:39 29° WNW 18:17:11 10° NNW visible
